[[{"header":{"parameterUnit":"m.s-1","parameterCategory":1,"la1":30.2991,"la2":30.254,"lo1":-89.0895,"lo2":-89.0444,"dy":0.0017,"dx":0.0017,"nx":28,"ny":28,"refTime":"2024-06-17T21:00:00:Z","depth":0,"parameterNumber":2,"parameterNumberName":"U-component_of_WINDS"},"data":[0,0,0,0,0,0,0,0,0,0,0,0,0,0,0,0,0,0,0,0,0,0,0,0,0,0,0,0,0,0,0,0,0,0,0,0,0,0,0,0,0,0,0,0,0,0,0,0,0,0,0,0,0,0,0,0,0,0,-11.128,-11.128,0,-11.1326,-11.1327,-11.1327,-11.1124,-11.1118,-11.1112,-11.1106,-11.1153,-11.116,-11.1167,0,0,0,0,0,0,0,0,0,0,0,0,0,-11.1014,-11.102,-11.1279,-11.128,-11.1281,-11.1326,-11.1327,-11.1328,-11.1125,-11.1117,-11.111,-11.1103,-11.1151,-11.1159,-11.1167,0,0,0,0,0,0,0,0,0,0,0,0,0,-11.1102,-11.1022,-11.1279,-11.1185,-11.1177,-11.1326,-11.1327,-11.1328,-11.1126,-11.1117,-11.1108,-11.11,-11.1148,-11.1158,-11.1168,-11.141,0,0,-11.12,-11.1204,0,0,0,0,0,0,0,0,-11.1098,-11.1112,-11.1198,-11.1192,-11.1183,-11.121,-11.125,-11.1355,-11.1129,-11.1146,-11.1106,-11.1096,-11.1179,-11.1186,-11.1215,-11.1412,-11.1414,-11.12,-11.1207,-11.1211,-11.1214,0,0,0,0,0,0,0,-11.1092,-11.1109,-11.1298,-11.12,-11.1191,-11.114,-11.1143,-11.1269,-11.1212,-11.1143,-11.1129,-11.1137,-11.1173,-11.1205,-11.1214,-11.1415,-11.12,-11.1209,-11.1216,-11.1219,-11.1814,-11.1823,0,0,0,0,0,0,-11.1098,-11.1105,-11.1296,-11.1299,-11.1117,-11.1152,-11.1155,-11.121,-11.121,-11.1201,-11.1145,-11.1127,-11.1192,-11.1203,-11.1215,-11.1497,-11.1211,-11.122,-11.1226,-11.1804,-11.1816,-11.1826,0,0,0,0,0,0,-11.1093,-11.1117,-11.1294,-11.1198,-11.1217,-11.1166,-11.123,-11.1216,-11.1248,-11.1211,-11.12,-11.1188,-11.1186,-11.1201,-11.1363,-11.1496,-11.1225,-11.1234,-11.1793,-11.1808,-11.1821,-11.2065,0,0,0,0,0,0,-11.1087,-11.1117,-11.1208,-11.1202,-11.1223,-11.1443,-11.1238,-11.1223,-11.1266,-11.1244,-11.1249,-11.1241,-11.118,-11.1349,-11.1374,-11.1505,-11.1242,-11.1781,-11.18,-11.1817,-11.2045,-11.2086,-11.2121,0,0,0,0,0,-11.1078,-11.1274,-11.1213,-11.1238,-11.1336,-11.145,-11.1462,-11.1389,-11.1278,-11.1369,-11.1345,-11.1241,-11.1479,-11.1368,-11.1393,-11.153,-11.1772,-11.1794,-11.1815,-11.2027,-11.2078,-11.212,0,0,0,0,0,0,-11.1296,-11.1272,-11.1204,-11.1404,-11.1431,-11.1416,-11.1528,-11.1444,-11.1503,-11.1479,-11.1385,-11.1388,-11.1567,-11.1565,-11.1442,-11.1765,-11.1606,-11.1634,-11.1759,-11.1806,-11.1844,-11.1839,-11.1251,0,0,0,0,0,-11.1368,-11.1463,-11.1436,-11.1616,-11.1633,-11.158,-11.1626,-11.1568,-11.1591,-11.1601,-11.1589,-11.1617,-11.1697,-11.1752,-11.1824,-11.2045,-11.2042,-11.2152,-11.219,-11.2222,-11.2246,-11.2362,-11.241,-11.1898,-11.1898,-11.1897,0,0,-11.1516,-11.1515,-11.158,-11.166,-11.1673,-11.1774,-11.159,-11.1704,-11.1777,-11.1618,-11.177,-11.1764,-11.1788,-11.1981,-11.2065,-11.1984,-11.2388,-11.225,-11.2275,-11.2282,-11.239,-11.2438,-11.2481,-11.1913,-11.191,-11.1908,0,0,-11.1837,-11.1846,-11.1996,-11.2015,-11.2038,-11.2002,-11.2039,-11.2037,-11.2026,-11.2178,-11.2061,-11.2148,-11.2289,-11.231,-11.234,-11.2674,-11.2579,-11.27,-11.2899,-11.3013,-11.3053,-11.3089,-11.3206,-11.3249,-11.2725,-11.2726,-11.2726,0,-11.2018,-11.2164,-11.2084,-11.2206,-11.2245,-11.2108,-11.2259,-11.2281,-11.2327,-11.2357,-11.2267,-11.2442,-11.2448,-11.2643,-11.2725,-11.2755,-11.2793,-11.2697,-11.3054,-11.3089,-11.312,-11.3231,-11.3276,-11.274,-11.2739,-11.2737,-11.2736,0,-11.2385,-11.2489,-11.2608,-11.2656,-11.2709,-11.2845,-11.2786,-11.2849,-11.2787,-11.276,-11.2917,-11.2921,-11.2991,-11.3034,-11.2975,-11.3222,-11.3171,-11.307,-11.2908,-11.3185,-11.3287,-11.3329,-11.2761,-11.2756,-11.2751,-11.2748,0,0,-11.284,-11.2846,-11.289,-11.2911,-11.2929,-11.3007,-11.3139,-11.3208,-11.3263,-11.3302,-11.3408,-11.3532,-11.3439,-11.3473,-11.3415,-11.3516,-11.3779,-11.3401,-11.34,-11.3469,-11.405,-11.4125,-11.4175,-11.3718,-11.3726,-11.3732,-11.4048,0,-11.3153,-11.3376,-11.331,-11.3534,-11.3629,-11.3502,-11.3616,-11.3639,-11.3619,-11.3697,-11.3674,-11.3763,-11.3633,-11.3653,-11.3748,-11.3727,-11.3893,-11.3703,-11.3815,-11.3819,-11.3809,-11.4229,-11.4307,-11.4605,-11.4087,-11.4094,-11.4099,0,-11.3547,-11.3601,-11.3836,-11.3838,-11.3875,-11.3979,-11.4038,-11.4114,-11.4139,-11.4117,-11.4158,-11.4079,-11.4208,-11.4049,-11.4225,-11.4097,-11.414,-11.4137,-11.4147,-11.4151,-11.3974,-11.4243,-11.4698,-11.4742,-11.4162,-11.4157,-11.4152,0,-11.3853,-11.3985,-11.4142,-11.4164,-11.4172,-11.4248,-11.4255,-11.427,-11.4317,-11.437,-11.4399,-11.4466,-11.4502,-11.4556,-11.4499,-11.4389,-11.4683,-11.4519,-11.4667,-11.4669,-11.4732,-11.4728,-11.5198,-11.4765,-11.4765,-11.4764,-11.4763,0,-11.4207,-11.4355,-11.4279,-11.4376,-11.4538,-11.4461,-11.4624,-11.4616,-11.4633,-11.4725,-11.4621,-11.471,-11.463,-11.4712,-11.4668,-11.482,-11.4838,-11.4823,-11.4809,-11.4831,-11.4832,-11.4854,-11.4831,-11.4776,-11.4773,-11.4771,-11.4769,0,-11.4575,-11.453,-11.4693,-11.4688,-11.4691,-11.481,-11.4806,-11.4895,-11.4869,-11.4987,-11.5011,-11.4969,-11.5061,-11.501,-11.5104,-11.5075,-11.5271,-11.523,-11.5263,-11.5251,-11.5401,-11.5387,-11.5899,-11.5962,-11.5492,-11.5496,-11.55,0,-11.4802,-11.4913,-11.4921,-11.4976,-11.499,-11.508,-11.5127,-11.5057,-11.5111,-11.5149,-11.5234,-11.5317,-11.5379,-11.5532,-11.551,-11.5581,-11.554,-11.5715,-11.555,-11.5568,-11.554,-11.5532,-11.5543,-11.5747,-11.5752,-11.5757,-11.576,0,-11.521,-11.5183,-11.5256,-11.5322,-11.5382,-11.5431,-11.5471,-11.5522,-11.5452,-11.5519,-11.5611,-11.566,-11.5757,-11.584,-11.5903,-11.5909,-11.5824,-11.5814,-11.5851,-11.5872,-11.5886,-11.5878,-11.535,-11.5801,-11.5797,-11.5794,-11.5792,-11.579,-11.5512,-11.5605,-11.5625,-11.571,-11.5733,-11.5774,-11.5857,-11.5842,-11.5918,-11.5992,-11.5947,-11.6056,-11.6079,-11.6154,-11.6172,-11.6256,-11.6186,-11.6241,-11.6254,-11.6268,-11.6288,-11.5876,-11.6268,-11.6267,-11.6265,-11.6264,-11.6264,0,-11.5912,-11.592,-11.5999,-11.6059,-11.6126,-11.6042,-11.6083,-11.6144,-11.6242,-11.6271,-11.6335,-11.6443,-11.6524,-11.651,-11.6584,-11.6654,-11.6617,-11.6675,-11.6668,-11.6671,-11.6347,-11.6306,-11.6704,-11.6704,-11.6704,-11.6704,-11.6704,-11.6704,-11.6128,-11.628,-11.6257,-11.6419,-11.6426,-11.6532,-11.6562,-11.6599,-11.6622,-11.6747,-11.6814,-11.6805,-11.6817,-11.6891,-11.6962,-11.6956,-11.6987,-11.706,-11.704,-11.6737,-11.6693,-11.6652,-11.6612,-11.7068,-11.7069,-11.7355,-11.7358,-11.736]},{"header":{"parameterUnit":"m.s-1","parameterCategory":1,"la1":30.2991,"la2":30.254,"lo1":-89.0895,"lo2":-89.0444,"dy":0.0017,"dx":0.0017,"nx":28,"ny":28,"refTime":"2024-06-17T21:00:00:Z","depth":0,"parameterNumber":3,"parameterNumberName":"V-component_of_WINDS"},"data":[0,0,0,0,0,0,0,0,0,0,0,0,0,0,0,0,0,0,0,0,0,0,0,0,0,0,0,0,0,0,0,0,0,0,0,0,0,0,0,0,0,0,0,0,0,0,0,0,0,0,0,0,0,0,0,0,0,0,1.3288,1.3289,0,1.3383,1.3385,1.3386,1.3469,1.347,1.3471,1.3472,1.3564,1.3566,1.3567,0,0,0,0,0,0,0,0,0,0,0,0,0,1.3175,1.3177,1.3288,1.3289,1.329,1.3383,1.3385,1.3386,1.3469,1.347,1.3471,1.3472,1.3564,1.3565,1.3567,0,0,0,0,0,0,0,0,0,0,0,0,0,1.3243,1.3178,1.3288,1.3343,1.3349,1.3383,1.3385,1.3386,1.3469,1.347,1.3471,1.3473,1.3563,1.3565,1.3568,1.3553,0,0,1.3575,1.3576,0,0,0,0,0,0,0,0,1.3239,1.3247,1.3334,1.3339,1.3346,1.3416,1.3379,1.3442,1.3468,1.3423,1.3472,1.3474,1.3513,1.352,1.3534,1.3557,1.3561,1.3575,1.3576,1.3577,1.3578,0,0,0,0,0,0,0,1.3234,1.3243,1.3326,1.3335,1.3342,1.3362,1.3374,1.3391,1.3458,1.3427,1.3433,1.3444,1.3517,1.3532,1.3537,1.3562,1.3575,1.3577,1.3578,1.3579,1.3582,1.3581,0,0,0,0,0,0,1.3221,1.3239,1.3323,1.3328,1.3295,1.3363,1.3376,1.3392,1.3459,1.347,1.3442,1.3447,1.3527,1.3534,1.3541,1.353,1.3577,1.3579,1.3581,1.3583,1.3582,1.358,0,0,0,0,0,0,1.3219,1.3228,1.3319,1.3285,1.3299,1.3364,1.3381,1.3393,1.3408,1.347,1.3482,1.3445,1.3529,1.3537,1.355,1.3534,1.358,1.3583,1.3585,1.3583,1.3581,1.3506,0,0,0,0,0,0,1.3215,1.3226,1.3222,1.3285,1.33,1.3327,1.338,1.3394,1.3413,1.342,1.3476,1.3487,1.353,1.3547,1.3553,1.3538,1.3584,1.3586,1.3584,1.3581,1.3511,1.3502,1.3495,0,0,0,0,0,1.3211,1.3195,1.3221,1.323,1.3295,1.3326,1.3335,1.3386,1.3411,1.3407,1.3448,1.3485,1.3535,1.3547,1.3555,1.3541,1.3588,1.3585,1.3582,1.3514,1.3504,1.3495,0,0,0,0,0,0,1.3125,1.3204,1.3234,1.3238,1.3275,1.334,1.3336,1.3373,1.3402,1.3407,1.3469,1.3481,1.3487,1.3516,1.3527,1.3532,1.3567,1.3565,1.3513,1.3504,1.3496,1.3488,1.3586,0,0,0,0,0,1.3107,1.3126,1.3194,1.3191,1.3209,1.3269,1.3284,1.3321,1.3361,1.3377,1.3418,1.3454,1.3479,1.3493,1.3518,1.3516,1.353,1.3511,1.3503,1.3496,1.3493,1.3497,1.3489,1.357,1.357,1.357,0,0,1.3069,1.3115,1.3122,1.3175,1.3208,1.3227,1.3281,1.3297,1.3312,1.3378,1.3394,1.3426,1.3471,1.3477,1.3482,1.35,1.3475,1.3492,1.3486,1.3487,1.3493,1.3485,1.3478,1.3568,1.3569,1.3569,0,0,1.301,1.3046,1.3049,1.3082,1.3133,1.3174,1.3175,1.3236,1.326,1.3278,1.333,1.3347,1.3387,1.3418,1.3438,1.3396,1.3432,1.3402,1.3361,1.3363,1.3357,1.3351,1.3337,1.3331,1.34,1.34,1.34,0,1.2955,1.2986,1.3045,1.306,1.3082,1.3148,1.3152,1.318,1.3235,1.3249,1.3271,1.3325,1.3359,1.3375,1.3365,1.3379,1.3382,1.3395,1.3353,1.3348,1.3344,1.3331,1.3326,1.3396,1.3396,1.3397,1.3397,0,1.2918,1.2939,1.2935,1.2991,1.3013,1.3021,1.3082,1.3097,1.3134,1.3173,1.3191,1.3236,1.3273,1.328,1.3314,1.3301,1.3311,1.3342,1.3378,1.3332,1.3321,1.3316,1.339,1.3392,1.3393,1.3394,0,0,1.2803,1.2895,1.2893,1.292,1.2983,1.3,1.3013,1.3052,1.3064,1.3102,1.3114,1.3149,1.318,1.3203,1.3242,1.3244,1.321,1.3275,1.3277,1.3262,1.32,1.3176,1.3169,1.3236,1.3235,1.3234,1.3196,0,1.2754,1.2782,1.2838,1.2848,1.2869,1.2934,1.2946,1.2985,1.3023,1.3046,1.3088,1.3112,1.3149,1.3165,1.317,1.3213,1.3198,1.3216,1.3247,1.3247,1.3233,1.3163,1.3137,1.3099,1.3192,1.3192,1.3191,0,1.2699,1.2736,1.2749,1.2815,1.2825,1.2835,1.2877,1.2898,1.2946,1.2973,1.3002,1.3046,1.3064,1.3099,1.3124,1.3135,1.3152,1.3175,1.3175,1.3179,1.3215,1.3165,1.3088,1.3082,1.3185,1.3185,1.3186,0,1.2615,1.2667,1.2683,1.2705,1.2781,1.2787,1.2818,1.2868,1.2889,1.2926,1.294,1.2977,1.2998,1.3026,1.3079,1.3099,1.3099,1.3137,1.3122,1.3121,1.3117,1.3117,1.3042,1.3129,1.3129,1.3129,1.3129,0,1.2553,1.2559,1.2647,1.2656,1.2666,1.2731,1.2737,1.2775,1.2819,1.2837,1.2895,1.291,1.2981,1.3004,1.3046,1.3062,1.307,1.3093,1.3104,1.3087,1.3084,1.3098,1.3102,1.3127,1.3128,1.3128,1.3128,0,1.2459,1.2519,1.254,1.2613,1.2632,1.2635,1.2697,1.2709,1.2752,1.2774,1.2783,1.285,1.2881,1.2939,1.2985,1.3013,1.302,1.3039,1.3004,1.3011,1.2993,1.2994,1.2923,1.2918,1.3008,1.3007,1.3006,0,1.2416,1.2422,1.2497,1.2515,1.2545,1.2572,1.2596,1.2661,1.2682,1.274,1.2745,1.2782,1.2814,1.2861,1.2913,1.295,1.297,1.2943,1.2976,1.296,1.2971,1.2969,1.2971,1.2935,1.2934,1.2933,1.2932,0,1.2332,1.2363,1.2395,1.2439,1.2466,1.2502,1.2542,1.2553,1.2627,1.2648,1.2683,1.2709,1.2759,1.2795,1.284,1.2872,1.2914,1.2922,1.292,1.2903,1.2883,1.2894,1.2984,1.2922,1.2923,1.2924,1.2925,1.2925,1.2263,1.2273,1.2328,1.2363,1.2401,1.2438,1.2454,1.2501,1.2531,1.2579,1.2616,1.2647,1.2698,1.2764,1.2794,1.282,1.2839,1.2837,1.2836,1.2834,1.2828,1.288,1.2828,1.2828,1.2829,1.2829,1.2829,0,1.2183,1.2223,1.2255,1.2311,1.2338,1.238,1.2427,1.2447,1.2475,1.252,1.2552,1.2593,1.263,1.2686,1.2727,1.2737,1.2758,1.2746,1.2745,1.2752,1.2808,1.2806,1.2729,1.2729,1.2729,1.2729,1.2729,1.2729,1.2144,1.2165,1.2202,1.2243,1.2283,1.2316,1.234,1.2375,1.2411,1.2455,1.2487,1.2525,1.2575,1.2621,1.2656,1.2672,1.2684,1.2666,1.2688,1.2739,1.2748,1.2757,1.2755,1.2668,1.2668,1.263,1.263,1.263]}]]